"Pseudo-MPEC" for ZTs0285

Created 2024 Sep 5 21:22:42 UT using Find_Orb

Click here for an explanation of pseudo-MPECs

 
 Astrometry: 
     ZTs0285* C2024 09 04.18095117 16 38.425+50 26 59.04   ~94C7 18.63gUNEOCPI41
     ZTs0285  C2024 09 04.18129917 16 39.706+50 27 22.02   ~94C7 18.63gUNEOCPI41
     ZTs0285  C2024 09 04.22153217 19 39.769+51 14 14.76   ~94CM 19.08RUNEOCPI41
     ZTs0285  C2024 09 04.22187917 19 41.307+51 14 36.99   ~94CM 19.08RUNEOCPI41
     ZTs0285  C2024 09 04.24042317 21 07.898+51 36 04.87   ~94C7 18.48RUNEOCPI41
     ZTs0285  C2024 09 04.24077017 21 09.282+51 36 26.66   ~94C7 18.48RUNEOCPI41
     ZTs0285 KC2024 09 04.55778017 52 22.89 +57 48 02.3    ~94Eq 18.4 GVNEOCP900
     ZTs0285 KC2024 09 04.56270417 52 56.02 +57 53 25.1    ~94Eq 17.9 GVNEOCP900
     ZTs0285 KC2024 09 04.56762917 53 29.21 +57 58 45.8    ~94Eq 18.3 GVNEOCP900
     ZTs0285 KC2024 09 04.79083918 24 17.18 +62 00 31.0    ~94Jb 18.6 GVNEOCPG34
     ZTs0285 KC2024 09 04.79093 18 24 04.16 +62 01 13.1    ~94Jb 18.0 VqNEOCPL04
     ZTs0285 KC2024 09 04.79282018 24 34.25 +62 02 31.2    ~94Jb 18.1 GVNEOCPG34
     ZTs0285 1C2024 09 04.79315 18 24 39.41 +62 02 50.0    ~94Nb 20.1 VXNEOCP033
     ZTs0285 1C2024 09 04.79348 18 24 42.29 +62 03 10.5    ~94Nb 20.2 VXNEOCP033
     ZTs0285 1C2024 09 04.79421 18 24 48.63 +62 03 55.0    ~94Nb 19.8 VXNEOCP033
     ZTs0285 KC2024 09 04.79423 18 24 32.47 +62 04 31.8    ~94Jb 19.0 VqNEOCPL04
     ZTs0285 1C2024 09 04.79460 18 24 52.02 +62 04 18.7    ~94Nb 20.0 VXNEOCP033
     ZTs0285 1C2024 09 04.79500 18 24 55.48 +62 04 43.1    ~94Nb 19.6 VXNEOCP033
     ZTs0285 KC2024 09 04.79679018 25 08.50 +62 06 31.5    ~94Jb 17.7 GVNEOCPG34
     ZTs0285 KC2024 09 04.79928 18 25 16.25 +62 09 36.4    ~94Jb 18.5 VqNEOCPL04
     ZTs0285 KC2024 09 04.82932118 29 53.14 +62 40 02.3    ~94Kb 17.7 GVNEOCPL01
     ZTs0285 KC2024 09 04.83108018 30 08.95 +62 41 44.9    ~94Kb 18.5 GVNEOCPL01
     ZTs0285 KC2024 09 04.83422118 30 37.14 +62 44 48.9    ~94Kb 18.4 GVNEOCPL01
     ZTs0285 KC2024 09 04.83632018 30 56.11 +62 46 50.6    ~94Kb 18.4 GVNEOCPL01
     ZTs0285 KC2024 09 04.83745318 31 06.34 +62 47 57.5    ~94Kb 17.8 GVNEOCPL01
     ZTs0285 KB2024 09 04.87598318 37 20.09 +63 25 37.8    ~94Lb 18.4 GXNEOCPI93
     ZTs0285 KB2024 09 04.87791618 37 38.33 +63 27 26.8    ~94Lb 18.0 GXNEOCPI93
     ZTs0285 KB2024 09 04.87983218 37 56.39 +63 29 14.5    ~94Lb 18.6 GXNEOCPI93
     ZTs0285 KB2024 09 04.88231018 38 19.84 +63 31 34.3    ~94Lb 18.0 GXNEOCPI93
     ZTs0285 KC2024 09 05.08701619 16 26.30 +66 29 27.6    ~952M 18.6 GVNEOCPH21
     ZTs0285 KC2024 09 05.08795619 16 37.08 +66 30 10.5    ~952M 18.6 GVNEOCPH21
     ZTs0285 KC2024 09 05.08880119 16 46.89 +66 30 48.8    ~952M 18.9 GVNEOCPH21
     ZTs0285 KC2024 09 05.08978819 16 58.24 +66 31 34.2    ~952M 18.5 GVNEOCPH21
     ZTs0285 KC2024 09 05.09082119 17 10.24 +66 32 20.7    ~952M 18.4 GVNEOCPH21
     ZTs0285 mC2024 09 05.11520619 22 38.215+66 51 24.48   ~9537 17.96GVNEOCPI52
     ZTs0285 mC2024 09 05.11533619 22 39.796+66 51 30.89   ~9537 17.67GVNEOCPI52
     ZTs0285 mC2024 09 05.11546019 22 41.293+66 51 35.14   ~9537 17.81GVNEOCPI52
     ZTs0285 mC2024 09 05.11558319 22 42.694+66 51 41.26   ~9537 17.73GVNEOCPI52
     ZTs0285 KC2024 09 05.13203619 25 49.17 +67 03 19.7    ~953b 18.3 GXNEOCP858
     ZTs0285 KC2024 09 05.13451819 26 18.91 +67 05 05.8    ~953b 18.4 GXNEOCP858
     ZTs0285 KC2024 09 05.13636119 26 41.02 +67 06 24.3    ~953b 18.8 GXNEOCP858
     ZTs0285 KC2024 09 05.17645 19 35 18.18 +67 30 45.0    ~955M 17.9 GVNEOCPU55
     ZTs0285 KC2024 09 05.17918 19 35 52.58 +67 32 33.8    ~955M 18.4 GVNEOCPU55
     ZTs0285 KC2024 09 05.18187 19 36 26.34 +67 34 20.0    ~955M 17.9 GVNEOCPU55
     ZTs0285 KB2024 09 05.50410820 53 06.209+69 58 23.72   ~95Cq 19.9 VZNEOCPQ06
     ZTs0285 KB2024 09 05.50726620 53 51.586+69 59 06.26   ~95Cq 18.7 VZNEOCPQ06
     ZTs0285 KB2024 09 05.51042420 54 37.102+69 59 48.02   ~95Cq 20.1 VZNEOCPQ06
     ZTs0285 KB2024 09 05.76837321 58 43.66 +70 06 03.1    ~95Iq 18.0 GXNEOCPM45
     ZTs0285 KB2024 09 05.76910021 58 53.63 +70 05 59.3    ~95Iq 18.2 GXNEOCPM45
     ZTs0285 1C2024 09 05.77846 22 01 10.49 +70 02 59.9    ~95L7 19.0 VXNEOCP033
     ZTs0285 1C2024 09 05.77877 22 01 14.85 +70 02 58.2    ~95L7 19.0 VXNEOCP033
     ZTs0285 1C2024 09 05.78540 22 02 45.63 +70 02 16.1    ~95L7 18.7 VXNEOCP033
     ZTs0285 1C2024 09 05.78604 22 02 54.34 +70 02 12.0    ~95L7 18.4 VXNEOCP033
     ZTs0285 1C2024 09 05.78700 22 03 07.48 +70 02 05.5    ~95L7 18.4 VXNEOCP033

Station data:
(033) Karl Schwarzschild Observatory, Tautenburg  (N50.980139 E11.711240)
   Germany.  Observer B. Stecklum. 1.34-m f/3 Schmidt + CCD.
(858) Tebbutt Observatory, Edgewood  (N35.093869 W106.220000)  US/New Mexico.
    Observer F. B. Zoltowski. 0.16-m refractor + CCD0.51-m Schmidt-Cassegrain
   + CCD.
(900) Moriyama  (N35.049753 E135.989940)  Japan.  Observer Y. Ikari. 0.26-m
   f/7.0 reflector + CCD.
(G34) Oberfrauendorf  (N50.860002 E13.701500)  Germany.  Observer T. Felber.
   0.35-m f/6.3 Schmidt-Cassegrain + CCD.
(H21) Astronomical Research Observatory, Westfield  (N39.483054 W87.968270)
   US/Illinois.  Observer R. Holmes. Measurers S. Foglia, L. Buzzi, T.
   Linder, R. Holmes. 0.76-m f/3.0 astrograph + CCD0.81-m f/4.0 astrograph +
   CCD0.61-m f/4.5 astrograph + CCD0.40-m f/5.32 astrograph + CCD.
(I41) Palomar Mountain--ZTF  (N33.357336 W116.859780)  US/California.
   Observers B. T. Bolin, Z. T. F. Collaboration. Measurers B. T. Bolin,
   Z.-Y. Lin, F. J. Masci. 1.2-m f/2.4 Schmidt.
(I52) Steward Observatory, Mt. Lemmon Station  (N32.442570 W110.788920)
   US/Arizona.  Observers T. A. Pruyne, B. M. Africano, E. J. Christensen, G.
   A. Farneth, D. C. Fuls, A. R. Gibbs, A. D. Grauer, H. Gröller, J. A.
   Johnson, R. A. Kowalski, S. M. Larson, G. J. Leonard, D. Rankin, R. L.
   Seaman, F. C. Shelly, K. W. Wierzchoś. 1.0-m prime focus + CCD.
(I93) St Pardon de Conques  (N44.558670 W0.202960)  France.  Observers F.
   Losse, W. D'Anna. Measurer F. Losse. 0.40-m f/3.7 reflector + CCD.
(L01) Višnjan Observatory, Tičan  (N45.290897 E13.749300)  Croatia.
   Observers K. Korlević, D. Pujagic, V. Dobos. Measurers D. Pujagic, K.
   Korlević. 1.0-m f/2.9 reflector + CCD.
(L04) ROASTERR-1 Observatory, Cluj-Napoca  (N46.820952 E23.596400)  Romania.
   Observer L. Hudin. 0.3-m f/5 reflector + CCD0.1-m f/9 refractor + CCD.
(M45) Starhopper Observatory, Sfantu Gheorghe  (N45.865582 E25.768900)
   Romania.  Observer F. Ursache. 0.41-m f/7.5 reflector + CMO.
(Q06) Tarui Observatory, Tarui  (N35.394791 E136.495470)  Japan.
(U55) Golden Ears Observatory, Maple Ridge  (N49.253277 W122.585440)
   Canada/BritColumbia.  Observer B. Kumar. 0.36-m f/7 Schmidt-Cassegrain +
   CCD.

Orbital elements:  ZTs0285
   Perihelion 2024 Aug 26.11955 +/- 9.43e-5 TT =  2:52:08 (JD 2460548.61955)
Epoch 2024 Sep  5.0 TT = JDT 2460558.5   Earth MOID: 0.0027   Ma: 0.0126
M   2.63405332 +/- 0.0041           (J2000 ecliptic)             AutoNEOCP
n   0.26659237 +/- 0.000423         Peri.   23.26185 +/- 0.007
a   2.39095220 +/- 0.00253          Node   307.19281 +/- 0.008
e   0.5812451 +/- 0.000445          Incl.    1.10048 +/- 0.0006
P   3.69706                H 25.51  G  0.15   U  7.5
q 1.00122282 +/- 5.67e-6    Q 3.78068158 +/- 0.00506
From 54 observations 2024 Sept. 4-5 (38.5 hr); mean residual 0".53
Residuals in arcseconds: 
240904 I41  .50+  .05-    240904 G34  .19+  .29+    240905 I52  .22+  1.2-    
240904 I41  1.7-  1.5-    240904 L04  .14-  1.1+    240905 I52  .08-  .57-    
240904 I41  .51+  1.6+    240904 L01  .37-  .11-    240905 858  .25+  .13+    
240904 I41  .03-  .25-    240904 L01  .07-  .55-    240905 858  .25+  .17+    
240904 I41  1.8+  1.0+    240904 L01  .37-  .11-    240905 858  .18+  .27+    
240904 I41  .59-  1.2-    240904 L01  .06-  .76-    240905 U55  .75-  .19-    
240904 900  .48-  .22+    240904 L01  .10-  .21+    240905 U55  .21+  .34+    
240904 900  .29+  .50+    240904 I93  .46-  .37-    240905 U55  .00   .48+    
240904 900  .36-  .58-    240904 I93  .29-  .43-    240905 Q06  .25-  .09-    
240904 G34  1.2+  .96+    240904 I93  .52-  .60-    240905 Q06  .41-  .14-    
240904 L04  .04-  .10-    240904 I93  .58-  .03+    240905 Q06  .13+  .02+    
240904 G34  1.0+  .72+    240905 H21  .45+  .10+    240905 M45  .11-  .23-    
240904 033  .09-  .52-    240905 H21  .01+  .15+    240905 M45  .08-  .00     
240904 033  .11+  .09-    240905 H21  .28+  .02-    240905 033  .02-  .07+    
240904 033  .29+  .04+    240905 H21  .11-  .53+    240905 033  .50+  .25+    
240904 L04  .76-  .28-    240905 H21  .15+  .17+    240905 033  .24+  .05+    
240904 033  .40+  .05+    240905 I52  .24-  .57-    240905 033  .06+  .16+    
240904 033  .38+  .16+    240905 I52  .03+  .05+    240905 033  .20+  .04+    

Ephemerides (geocentric):
Date (UTC) HH   RA             Dec           delta  r     elong  mag " sig PA
---- --------  ------------   ------------  ------ ------ -----  --- --------
2024 09 05 21  22 21 56.642   +69 44 23.95  .01256 1.0111 103.5 18.7 .253  74
2024 09 05 22  22 30 58.742   +69 34 01.40  .01266 1.0111 103.8 18.7 .252  77
2024 09 05 23  22 39 43.719   +69 22 06.95  .01275 1.0112 104.1 18.7 .251  79
2024 09 06 00  22 48 10.914   +69 08 47.91  .01285 1.0113 104.4 18.7 .250  82
2024 09 06 01  22 56 19.907   +68 54 11.48  .01295 1.0114 104.6 18.7 .249  84
2024 09 06 02  23 04 10.488   +68 38 24.71  .01305 1.0115 104.9 18.7 .247  87
2024 09 06 03  23 11 42.639   +68 21 34.42  .01315 1.0115 105.2 18.7 .245  89
2024 09 06 04  23 18 56.498   +68 03 47.17  .01326 1.0116 105.5 18.7 .242  91
2024 09 06 05  23 25 52.341   +67 45 09.18  .01336 1.0117 105.7 18.7 .239  93
2024 09 06 06  23 32 30.552   +67 25 46.33  .01347 1.0118 106.0 18.7 .236  95
2024 09 06 07  23 38 51.603   +67 05 44.15  .01359 1.0118 106.2 18.8 .232  97
2024 09 06 08  23 44 56.029   +66 45 07.80  .01370 1.0119 106.5 18.8 .228  99
2024 09 06 09  23 50 44.415   +66 24 02.07  .01382 1.0120 106.7 18.8 .224 100
